Flag for U.S.A. Weather past 2 weeks in Boston, Massachusetts, U.S.A.

55 °F

Mostly cloudy.

Feels Like: 51 °F
Forecast: 42 / 55 °F
Wind: 17 mph from Southwest

Location: Logan International Airport

Current Time: Nov 27, 2015 at 9:31:01 PM

Latest Report: Nov 27, 2015 at 8:54 PM

Visibility: 10 mi

Pressure: 30.16 "Hg

Humidity: 80%

Dew point: 49 °F

Location of BostonLocation

Historic Weather in Boston — Graph


Boston temperature yesterday

Maximum temperature yesterday: 58 °F (at 12:54 PM)
Minimum temperature yesterday: 41 °F (at 12:54 AM)
Average temperature yesterday: 48 °F

Past Weeks' High & Low Weather Summary

High64 °F (Nov 27, 1:54 PM)100% (Nov 20, 6:03 AM)30.87 "Hg (Nov 20, 6:03 AM)
Low29 °F (Nov 24, 2:54 AM)18% (Nov 16, 3:54 PM)29.43 "Hg (Nov 13, 3:54 AM)
Average45 °F63%30.22 "Hg
* Reported Nov 12 7:54 PM — Nov 27 7:54 PM, Boston, Weather by CustomWeather, © 2015

Note: Actual official high and low records may vary slightly from our data, if they occured in-between our weather recording intervals... More about our weather records


Boston weather history for previous 24 hours

Time TempWeatherWind HumidityBarometerVisibility
7:54 PM
Fri, Nov 27
56 °FMostly cloudy.13 mph77%30.19 "Hg10 mi
6:54 PM57 °FMostly cloudy.15 mph72%30.20 "Hg10 mi
5:54 PM59 °FPassing clouds.14 mph67%30.21 "Hg10 mi
4:54 PM59 °FPartly cloudy.13 mph67%30.24 "Hg10 mi
3:54 PM61 °FMostly cloudy.17 mph62%30.26 "Hg10 mi
2:54 PM63 °FMore clouds than sun.21 mph56%30.28 "Hg10 mi
1:54 PM64 °FMore clouds than sun.18 mph58%30.29 "Hg10 mi
12:54 PM62 °FMore clouds than sun.25 mph62%30.34 "Hg10 mi
11:54 AM62 °FBroken clouds.23 mph65%30.39 "Hg10 mi
10:54 AM60 °FPartly sunny.17 mph72%30.43 "Hg10 mi
9:54 AM57 °FCloudy.20 mph81%30.45 "Hg10 mi
8:54 AM55 °FPartly sunny.12 mph90%30.47 "Hg8 mi
7:54 AM51 °FBroken clouds.6 mph92%30.51 "Hg8 mi
6:54 AM51 °FMostly cloudy.8 mph92%30.53 "Hg8 mi
5:54 AM51 °FOvercast.8 mph96%30.54 "Hg8 mi
4:54 AM51 °FFog.9 mph92%30.54 "Hg5 mi
3:54 AM51 °FFog.12 mph96%30.57 "Hg5 mi
2:54 AM50 °FFog.9 mph96%30.59 "Hg5 mi
1:54 AM49 °FFog.9 mph97%30.60 "Hg5 mi
12:54 AM49 °FPassing clouds.7 mph93%30.62 "Hg10 mi
11:54 PM
Thu, Nov 26
47 °FPassing clouds.7 mph97%30.64 "Hg7 mi
10:54 PM50 °FFog.10 mph96%30.64 "Hg5 mi
9:54 PM49 °FFog.8 mph97%30.66 "Hg5 mi
Weather by CustomWeather, © 2015

See weather overviewHow to use our weather pages